Pierre, SD

11:24 AM CST on December 05, 2019 (GMT -0600)
Pierre Regional

Weather History for KPIR - November, 2019

Change the Weather History Date:

Thursday, November 14, 2019

  Actual Average Record
Temperature  
Mean Temperature 36 °F 34 °F  
Max Temperature 53 °F 45 °F 72 °F (1939)
Min Temperature 19 °F 24 °F -18 °F (1959)
Degree Days  
Heating Degree Days 29    
Month to date heating degree days 490  
Since 1 July heating degree days 1300  
Cooling Degree Days 0    
Month to date cooling degree days 0  
Year to date cooling degree days 651  
Moisture  
Dew Point 30 °F    
Average Humidity 80    
Maximum Humidity 100    
Minimum Humidity 59    
Precipitation  
Precipitation 0.00 in 0.03 in 0.30 in (1956)
Month to date precipitation 0.48 0.40  
Year to date precipitation 29.35 19.10  
Snow  
Snow 0.00 in 0.20 in 3.50 in (1927)
Month to date snowfall 5.7 1.9  
Since 1 July snowfall 11.0 2.9  
Snow Depth T in    
Sea Level Pressure  
Sea Level Pressure 30.26 in    
Wind  
Wind Speed 5 mph (WSW)    
Max Wind Speed 13 mph    
Max Gust Speed 17 mph    
Visibility 10 miles    
Events      
T = Trace of Precipitation, MM = Missing Value Source: NWS Daily Summary

Daily Weather History Graph

Daily Weather History Graph

Search for Another Location

Airport or City:

Astronomy

Nov. 14, 2019 Rise Set
Actual Time 7:35 AM CST 5:15 PM CST
Civil Twilight 7:04 AM CST 5:46 PM CST
Nautical Twilight 6:29 AM CST 6:21 PM CST
Astronomical Twilight 5:54 AM CST 6:55 PM CST
Moon 6:59 PM CST (11/14) 9:35 AM CST (11/14)
Length of Visible Light 10h 42m
Length of Day
9h 39m
Waning Gibbous, 95% of the Moon is Illuminated
Nov 14
Waning Gibbous
Nov 19
Last Quarter
Nov 26
New
Dec 4
First Quarter
Dec 11
Full

Hourly Weather History & Observations

Time (CST) Temp. Windchill Dew Point Humidity Pressure Visibility Wind Dir Wind Speed Gust Speed Precip Events Conditions
12:53 AM 23.0 °F 14.7 °F 21.0 °F 92% 30.26 in 10.0 mi NW 6.9 mph - N/A   Clear
1:53 AM 21.9 °F 14.5 °F 19.9 °F 92% 30.27 in 10.0 mi West 5.8 mph - N/A   Clear
2:53 AM 23.0 °F 17.0 °F 21.0 °F 92% 30.28 in 10.0 mi West 4.6 mph - N/A   Clear
3:53 AM 21.9 °F - 21.0 °F 96% 30.28 in 10.0 mi Calm Calm - N/A   Clear
4:53 AM 23.0 °F 14.7 °F 21.0 °F 92% 30.29 in 10.0 mi SW 6.9 mph - N/A   Clear
6:53 AM 25.0 °F 17.1 °F 23.0 °F 92% 30.29 in 10.0 mi WSW 6.9 mph - N/A   Clear
7:53 AM 25.0 °F 19.3 °F 23.0 °F 92% 30.29 in 10.0 mi WSW 4.6 mph - N/A   Clear
8:53 AM 28.9 °F 25.2 °F 26.1 °F 89% 30.31 in 10.0 mi West 3.5 mph - N/A   Clear
9:53 AM 33.1 °F 26.9 °F 30.0 °F 89% 30.31 in 10.0 mi WSW 6.9 mph - N/A   Clear
10:53 AM 39.9 °F 33.9 °F 33.1 °F 77% 30.30 in 10.0 mi West 9.2 mph - N/A   Clear
11:53 AM 44.1 °F 39.5 °F 36.0 °F 73% 30.29 in 10.0 mi WSW 8.1 mph - N/A   Clear
12:53 PM 46.9 °F - 37.0 °F 68% 30.26 in 10.0 mi SW 9.2 mph - N/A   Clear
1:53 PM 50.0 °F - 37.0 °F 61% 30.24 in 10.0 mi West 8.1 mph - N/A   Clear
2:53 PM 52.0 °F - 37.0 °F 57% 30.22 in 10.0 mi WSW 10.4 mph - N/A   Clear
3:53 PM 52.0 °F - 37.0 °F 57% 30.22 in 10.0 mi WSW 5.8 mph - N/A   Clear
4:53 PM 48.9 °F - 37.0 °F 64% 30.22 in 10.0 mi West 3.5 mph - N/A   Clear
5:53 PM 39.0 °F - 34.0 °F 82% 30.23 in 10.0 mi Calm Calm - N/A   Clear
6:53 PM 42.1 °F 39.2 °F 36.0 °F 79% 30.23 in 10.0 mi South 4.6 mph - N/A   Clear
7:53 PM 35.1 °F - 32.0 °F 89% 30.23 in 10.0 mi Calm Calm - N/A   Clear
8:53 PM 33.1 °F - 32.0 °F 96% 30.23 in 10.0 mi Calm Calm - N/A   Clear
9:53 PM 30.0 °F - 28.9 °F 96% 30.23 in 10.0 mi Calm Calm - N/A   Clear
10:53 PM 28.9 °F 23.9 °F 28.0 °F 96% 30.22 in 10.0 mi ENE 4.6 mph - N/A   Clear
11:53 PM 30.0 °F - 28.0 °F 92% 30.21 in 10.0 mi Calm Calm - N/A   Clear